TimeEST,TemperatureF,Dew PointF,Humidity,Sea Level PressureIn,VisibilityMPH,Wind Direction,Wind SpeedMPH,Gust SpeedMPH,PrecipitationIn,Events,Conditions,WindDirDegrees,DateUTC
12:16 AM,12.6,9.0,85,30.14,10.0,Calm,Calm,-,N/A,,Clear,0,2012-12-09 05:16:00
12:35 AM,10.4,6.8,85,30.15,10.0,Calm,Calm,-,N/A,,Clear,0,2012-12-09 05:35:00
12:56 AM,12.2,8.6,85,30.15,10.0,Calm,Calm,-,N/A,,Clear,0,2012-12-09 05:56:00
1:16 AM,12.4,9.0,86,30.15,10.0,Calm,Calm,-,N/A,,Clear,0,2012-12-09 06:16:00
1:36 AM,13.6,10.2,86,30.15,10.0,Calm,Calm,-,N/A,,Clear,0,2012-12-09 06:36:00
1:56 AM,14.0,10.4,86,30.15,10.0,Calm,Calm,-,N/A,,Clear,0,2012-12-09 06:56:00
2:15 AM,14.0,9.9,84,30.17,10.0,Calm,Calm,-,N/A,,Clear,0,2012-12-09 07:15:00
2:36 AM,13.5,9.5,84,30.17,10.0,Calm,Calm,-,N/A,,Clear,0,2012-12-09 07:36:00
2:56 AM,12.9,9.3,86,30.17,10.0,Calm,Calm,-,N/A,,Clear,0,2012-12-09 07:56:00
3:15 AM,13.1,9.5,86,30.18,10.0,Calm,Calm,-,N/A,,Clear,0,2012-12-09 08:15:00
3:36 AM,14.2,10.4,85,30.19,10.0,Calm,Calm,-,N/A,,Clear,0,2012-12-09 08:36:00
3:55 AM,13.6,10.0,86,30.19,10.0,Calm,Calm,-,N/A,,Clear,0,2012-12-09 08:55:00
4:16 AM,14.9,11.1,85,30.19,10.0,Calm,Calm,-,N/A,,Clear,0,2012-12-09 09:16:00
4:36 AM,14.4,10.4,84,30.18,10.0,Calm,Calm,-,N/A,,Clear,0,2012-12-09 09:36:00
4:55 AM,16.7,13.1,86,30.17,10.0,Calm,Calm,-,N/A,,Clear,0,2012-12-09 09:55:00
5:16 AM,17.1,13.1,84,30.15,10.0,Calm,Calm,-,N/A,,Clear,0,2012-12-09 10:16:00
5:36 AM,20.8,15.8,81,30.15,10.0,SE,4.6,-,N/A,,Clear,140,2012-12-09 10:36:00
5:55 AM,20.3,15.4,81,30.17,10.0,Calm,Calm,-,N/A,,Clear,0,2012-12-09 10:55:00
6:50 AM,19.4,14.0,80,30.15,10.0,Calm,Calm,-,N/A,,Clear,0,2012-12-09 11:50:00
7:50 AM,21.2,15.8,80,30.15,10.0,ESE,4.6,-,N/A,,Scattered Clouds,110,2012-12-09 12:50:00
8:50 AM,24.8,17.6,74,30.17,10.0,ESE,4.6,-,N/A,,Overcast,110,2012-12-09 13:50:00
9:45 AM,24.8,17.6,74,30.15,10.0,East,9.2,-,N/A,,Overcast,100,2012-12-09 14:45:00
10:50 AM,24.8,17.6,74,30.14,10.0,East,5.8,-,N/A,,Overcast,90,2012-12-09 15:50:00
11:55 AM,26.6,19.4,74,30.11,10.0,East,6.9,-,N/A,,Overcast,90,2012-12-09 16:55:00
12:50 PM,28.4,19.4,69,30.09,10.0,ENE,5.8,-,N/A,,Overcast,70,2012-12-09 17:50:00
1:50 PM,28.4,21.2,74,30.05,10.0,ENE,6.9,-,N/A,,Overcast,70,2012-12-09 18:50:00
2:40 PM,28.4,21.2,74,30.01,2.0,ENE,10.4,-,N/A,Snow,Light Snow,60,2012-12-09 19:40:00
2:50 PM,26.6,21.2,80,30.01,1.5,ENE,9.2,-,N/A,Snow,Light Snow,60,2012-12-09 19:50:00
3:50 PM,26.6,23.0,86,29.98,1.2,ENE,6.9,-,N/A,Snow,Light Snow,70,2012-12-09 20:50:00
4:55 PM,26.6,23.0,86,29.95,2.0,ENE,8.1,-,N/A,Snow,Light Snow,70,2012-12-09 21:55:00
5:50 PM,26.6,23.0,86,29.92,4.0,East,11.5,-,N/A,Snow,Light Snow,80,2012-12-09 22:50:00
6:50 PM,24.8,21.2,86,29.91,5.0,ENE,10.4,-,N/A,Snow,Light Snow,70,2012-12-09 23:50:00
7:10 PM,24.8,21.2,86,29.91,1.5,ENE,8.1,-,N/A,Snow,Light Snow,70,2012-12-10 00:10:00
7:55 PM,24.8,21.2,86,29.91,1.5,ENE,6.9,-,N/A,Snow,Light Snow,60,2012-12-10 00:55:00
8:55 PM,24.8,21.2,86,29.90,2.0,NE,4.6,-,N/A,Snow,Light Snow,40,2012-12-10 01:55:00
9:50 PM,24.8,21.2,86,29.87,2.0,East,4.6,-,N/A,Snow,Light Snow,80,2012-12-10 02:50:00
10:15 PM,24.4,21.2,87,29.84,2.5,East,5.8,-,N/A,Snow,Light Snow,80,2012-12-10 03:15:00
10:36 PM,24.3,21.0,87,29.83,3.0,East,3.5,-,N/A,Snow,Light Snow,80,2012-12-10 03:36:00
10:56 PM,24.1,20.8,87,29.82,3.0,ENE,3.5,-,N/A,Snow,Light Snow,60,2012-12-10 03:56:00
11:15 PM,23.9,20.3,86,29.81,5.0,ENE,5.8,-,N/A,,Overcast,70,2012-12-10 04:15:00
11:36 PM,23.5,20.3,87,29.79,10.0,NE,6.9,-,N/A,,Overcast,50,2012-12-10 04:36:00
11:56 PM,23.5,20.3,87,29.80,7.0,NNE,5.8,-,N/A,,Overcast,30,2012-12-10 04:56:00